{"data":{"norad_id":64229,"intl_designator":"2025-117AC","name":"STARLINK-34241","alt_names":[],"object_type":"PAYLOAD","status":"ACTIVE","operator":null,"country":"US","launch_date":"2025-05-31","launch_site_code":"AFWTR","launch_vehicle":null,"mission":null,"orbit_class":"UNKNOWN","rcs_meters":null,"size_class":null,"mass_kg":null,"dimensions":null,"purposes":["comms"],"wikipedia_slug":null,"has_3d_model":false,"image_url":null,"decayed_at":null,"tle_current":{"epoch":"2026-09-20T14:08:16.729728Z","epoch_age_seconds":129953,"freshness":"FRESH","line1":"1 64229U 25117AC  26263.58908252  .00016302  00000+0  49272-3 0  9995","line2":"2 64229  53.1587 210.9794 0001464  62.8954 297.2198 15.34389399 74446","mean_motion":15.34389399,"eccentricity":0.0001464,"inclination_deg":53.1587,"raan_deg":210.9794,"arg_perigee_deg":62.8954,"mean_anomaly_deg":297.2198,"bstar":0.00049272,"rev_number":7444,"period_min":93.848406469602,"perigee_km":461.73324517055,"apogee_km":463.7362524186,"semimajor_km":6840.8717487946,"source":"CELESTRAK","updated_at":"2026-09-21T09:00:35.275712Z"}}}